Location: Fours
(44.3167°N, 6.7000°E)
Time: 05:10:55
(UTC+00:00)

NOSS 3-3 (A) - Pass Details

Date: 30 November 2020
Orbit: 818 x 1394 km, 63.4° (Epoch: 22 January)

Event Time Altitude Azimuth Distance (km) Brightness Sun altitude
Rises 18:16:55 0° 323° (NW) 3,962 7.6 -24.6°
Reaches altitude 10° 18:19:29 10° 325° (NW) 3,078 6.9 -25.1°
Maximum altitude 18:27:01 75° 51° (NE) 1,320 4.4 -26.4°
Enters shadow 18:29:58 44° 125° (SE) 1,748 4.9 -27.0°
